Regional Weather Roundup
Issued by NWS

Home | Current Version | Previous Version | Graphics & Text | Print | Product List | Glossary On
Versions: 1 2 3 4 5 6 7 8 9 10 11 12 13 14 15 16 17 18 19 20 21 22 23 24 25 26 27
000
ASUS45 KCYS 220210
RWRWY

WYOMING REGIONAL WEATHER ROUNDUP
NATIONAL WEATHER SERVICE CHEYENNE WY
800 PM MDT SAT OCT 21 2017

NOTE:  "FAIR" INDICATES FEW OR NO CLOUDS BELOW 12,000 FEET
WITH NO SIGNIFICANT WEATHER AND/OR OBSTRUCTIONS TO VISIBILITY.

WYZ001-220300-
YELLOWSTONE NATIONAL PARK

CITY           SKY/WX    TMP DP  RH WIND       PRES   REMARKS
LK YELLOWSTONE   N/A     26  21  81 CALM      30.17R
W YELLOWSTONE  NOT AVBL

$$
WYZ002>013-054>058-071-098>099-220300-
NORTHERN WYOMING

CITY           SKY/WX    TMP DP  RH WIND       PRES   REMARKS
JACKSON        CLOUDY    32  24  72 S13       30.21R WCI  22
CODY           FAIR      41  19  41 W17G31    30.03R
GREYBULL       FAIR      44  15  31 VRB5      30.01R
WORLAND        FAIR      35  18  49 E8        30.02R WCI  29
SHERIDAN       FAIR      36  15  42 NW5       29.96S WCI  32
BUFFALO        FAIR      41   9  26 CALM      29.98S
GILLETTE       FAIR      36  14  40 W7        29.97R WCI  30
HULETT         FAIR      39  18  41 S7        29.97S WCI  34
NEWCASTLE      FAIR      37  14  38 N7        29.99S WCI  32

$$
WYZ014>020-022>026-101>103-220300-
CENTRAL WYOMING

CITY           SKY/WX    TMP DP  RH WIND       PRES   REMARKS
BIG PINEY      FAIR      28  15  58 NE6       30.23R WCI  22
PINEDALE       FAIR      28  18  64 W7        30.23R WCI  21
DUBOIS         FAIR      30  18  59 NW15G21   30.13S WCI  19
LANDER         FAIR      39  13  34 CALM      30.07R
RIVERTON       FAIR      40  14  34 NW23G32   30.06R WCI  30
CASPER         FAIR      33  12  41 SW10      30.06R WCI  25
DOUGLAS        FAIR      37  12  35 W8        30.04R WCI  31

$$
WYZ021-027>030-104>119-220300-
SOUTHERN WYOMING

CITY           SKY/WX    TMP DP  RH WIND       PRES   REMARKS
EVANSTON       MOCLDY    33  12  41 S8        30.28R WCI  26
FORT BRIDGER   FAIR      35  10  35 W10G17    30.29R WCI  27
ROCK SPRINGS   FAIR      35  13  40 W16       30.24R WCI  25
DIXON          FAIR      34  22  61 W5        30.27R WCI  30
RAWLINS        FAIR      36  11  35 W22G31    30.15R WCI  25
SARATOGA       FAIR      32  19  59 SW9       30.20R WCI  24
LARAMIE        FAIR      31  15  52 SW16      30.12S WCI  20
CHEYENNE       FAIR      36  15  42 W7        30.11R WCI  30
TORRINGTON     FAIR      41  16  36 W8        30.04R
PINE BLUFFS    FAIR      32  14  47 MISG      30.12S

$$




USA.gov is the U.S. government's official web portal to all federal, state and local government web resources and services.